Date,TemperatureHighF,TemperatureAvgF,TemperatureLowF,DewpointHighF,DewpointAvgF,DewpointLowF,HumidityHigh,HumidityAvg,HumidityLow,PressureMaxIn,PressureMinIn,WindSpeedMaxMPH,WindSpeedAvgMPH,GustSpeedMaxMPH,PrecipitationSumIn
2013-2-2,76.9,67.5,56.7,53.3,46.7,36.1,68,48,33,30.27,29.45,11,-5,11,0.05
2013-2-3,71.7,58.3,39.2,46.5,37.4,24.3,90,50,19,30.34,30.00,12,1,12,0.00
2013-2-4,76.5,63.1,50.6,58.9,54.2,46.8,93,74,49,30.00,29.77,13,1,13,0.00
2013-2-5,78.8,59.8,44.8,50.3,46.0,36.3,98,67,25,29.98,29.84,8,0,8,0.00
2013-2-6,74.8,64.2,57.6,61.0,57.0,50.0,97,79,55,29.97,29.79,13,1,13,0.07
2013-2-7,83.8,67.7,58.1,61.2,52.4,35.4,93,64,23,30.07,29.81,10,1,10,0.00
2013-2-8,69.7,56.8,45.1,46.1,33.8,18.3,75,47,15,30.22,30.07,24,1,24,0.00
2013-2-9,69.5,58.9,51.2,66.0,54.6,37.1,95,86,57,30.09,29.75,17,3,17,0.00
2013-2-10,70.1,60.7,52.8,66.9,48.7,29.3,97,69,26,30.00,29.71,15,1,15,0.13
2013-2-11,62.4,54.1,50.8,52.3,46.3,38.2,92,76,44,30.11,29.95,10,1,10,0.23
2013-2-12,71.3,57.3,47.6,56.8,45.3,22.3,98,71,20,30.06,29.80,15,1,15,0.01
2013-2-13,62.8,47.5,36.9,38.9,34.3,27.4,91,64,28,30.16,30.02,9,1,9,0.00
2013-2-14,72.5,50.7,30.7,41.7,34.4,27.6,98,62,20,30.13,29.97,10,1,10,0.00
2013-2-15,63.1,48.5,36.0,40.5,35.1,25.0,92,62,40,30.40,30.07,12,1,12,0.00
2013-2-16,65.2,45.0,28.3,33.3,28.4,24.7,91,58,23,30.47,30.21,9,0,9,0.00
2013-2-17,72.5,53.8,30.9,50.8,36.4,28.1,91,58,25,30.21,29.95,17,3,17,0.00
2013-2-18,83.3,68.0,55.7,59.1,44.6,21.0,79,51,12,30.07,29.79,21,3,21,0.00
2013-2-19,69.0,57.1,38.9,34.9,29.5,20.8,72,38,18,30.26,30.06,10,2,10,0.00
2013-2-20,63.7,56.6,53.2,62.7,46.2,29.8,97,71,37,30.11,29.63,17,3,17,0.02
2013-2-21,66.4,12.5,44.1,63.0,-68.3,-99.9,97,11,20,29.86,29.55,9,-757,9,0.00
2013-2-22,64.9,48.9,40.4,39.2,31.1,-99.9,81,54,30,30.08,29.83,7,-14,7,0.00
2013-2-23,73.5,52.5,33.9,36.7,31.5,27.6,80,49,19,30.07,29.87,9,1,9,0.00
2013-2-24,77.0,56.7,34.2,58.4,44.5,31.4,93,67,36,29.91,29.56,14,2,14,0.00
2013-2-25,63.6,55.9,45.8,59.6,35.6,19.1,96,51,19,29.83,29.53,27,4,27,0.00
2013-2-26,65.8,46.8,35.3,31.5,29.4,27.0,76,53,23,29.96,29.83,14,1,14,0.00
2013-3-1,71.1,48.8,27.5,30.0,24.0,14.0,82,47,12,30.30,30.12,4,1,10,0.00
2013-3-2,66.7,49.0,34.8,30.8,27.3,20.9,74,47,20,30.43,30.25,10,1,10,0.00
2013-3-3,77.7,56.6,32.0,42.0,31.4,26.7,83,46,17,30.26,29.89,16,2,16,0.00
2013-3-4,93.5,69.7,55.6,51.1,43.8,34.0,77,45,13,29.89,29.64,12,1,12,0.00
2013-3-5,70.3,56.0,36.7,52.8,24.1,6.3,72,34,9,30.36,29.71,12,1,12,0.00
2013-3-6,68.0,47.3,28.4,25.2,19.3,10.1,76,38,11,30.47,30.21,7,0,7,0.00
2013-3-7,74.8,56.3,35.5,53.0,40.9,23.2,73,58,33,30.25,30.06,12,2,12,0.00
2013-3-8,65.6,61.3,57.8,63.3,57.2,51.8,96,87,71,30.12,29.97,13,2,13,0.03
2013-3-9,75.0,67.2,62.6,66.5,63.0,59.1,96,87,73,29.97,29.58,16,4,16,0.00
2013-3-10,67.5,57.3,43.1,61.4,44.0,31.1,99,67,29,30.11,29.66,11,1,11,0.00
2013-3-11,71.0,49.1,31.6,36.5,29.6,17.5,97,58,15,30.19,29.99,9,1,9,0.00
2013-3-12,83.5,56.9,32.9,40.9,34.0,26.8,95,53,13,30.23,30.04,13,1,13,0.00
2013-3-13,78.8,61.8,42.9,40.7,36.1,32.4,70,41,21,30.42,30.23,9,1,10,0.00
2013-3-14,81.3,62.8,41.7,53.1,43.2,37.2,90,53,25,30.36,30.18,13,1,13,0.00
2013-3-15,83.6,67.1,48.3,55.2,47.7,39.0,98,56,24,30.21,29.95,14,2,14,0.00
2013-3-16,86.5,71.0,58.0,61.3,54.6,48.8,88,60,29,29.97,29.68,15,3,15,0.00
2013-3-17,88.5,73.3,66.0,63.3,59.8,56.6,80,65,35,29.76,29.60,13,2,13,0.00
2013-3-18,93.0,74.5,61.7,65.2,53.3,35.8,96,56,14,29.91,29.66,9,1,9,0.00
2013-3-19,86.8,66.7,46.9,62.9,51.5,42.0,90,60,35,29.99,29.79,13,1,13,0.00
2013-3-20,75.7,61.9,51.9,53.3,44.9,30.1,96,60,20,30.22,29.98,14,1,14,0.13
2013-3-21,78.5,63.5,51.6,57.9,51.0,42.1,78,65,48,30.00,29.58,15,3,15,0.00
2013-3-22,91.0,73.2,56.5,65.3,60.1,46.8,87,66,38,29.75,29.59,8,1,9,0.00
2013-3-23,85.4,62.8,51.3,59.4,51.9,46.1,89,70,31,29.78,29.55,9,1,9,0.00
2013-3-24,64.3,52.6,39.3,57.3,31.1,20.3,92,48,20,30.16,29.67,12,2,12,0.00
2013-3-25,65.3,47.8,33.4,25.9,20.6,10.6,64,39,14,30.39,30.16,8,1,8,0.00
2013-3-26,69.6,51.0,28.9,31.5,22.0,13.1,80,38,12,30.49,30.27,9,1,9,0.00
2013-3-27,70.9,57.0,36.7,47.2,37.2,23.1,76,49,32,30.30,30.12,15,2,15,0.00
2013-3-28,75.0,64.3,53.9,58.4,54.6,47.1,86,71,54,30.17,30.08,12,2,12,0.00
2013-3-29,78.0,69.0,58.9,59.6,56.9,55.2,93,68,46,30.14,30.01,12,2,12,0.00
2013-3-30,87.0,72.7,65.1,62.5,60.2,57.9,85,67,39,30.07,29.83,12,2,12,0.00
2013-3-31,81.8,70.4,61.2,69.0,63.6,57.6,97,80,53,29.93,29.82,10,1,10,0.13
2013-4-1,88.5,71.8,54.9,65.7,60.4,54.0,98,71,38,30.02,29.84,13,1,13,0.00
2013-4-2,76.7,67.3,52.0,66.4,63.1,50.1,98,87,66,29.98,29.78,15,2,15,2.17
2013-4-3,56.2,51.8,48.6,55.5,50.5,46.8,98,96,93,30.14,29.81,11,0,11,0.40
2013-4-4,64.8,51.5,45.4,47.2,44.1,40.2,94,77,48,30.23,30.10,10,1,10,0.00
2013-4-5,76.3,55.9,36.8,50.2,44.0,36.0,98,69,34,30.27,30.03,7,1,7,0.00
2013-4-6,83.0,67.0,52.0,58.0,53.2,46.7,90,64,40,30.04,29.80,12,3,12,0.00
2013-4-7,85.0,70.3,63.5,65.7,60.9,56.5,84,73,47,29.88,29.69,14,3,14,0.00
2013-4-8,76.0,70.1,67.2,67.0,64.5,60.6,90,82,73,29.78,29.62,15,3,15,0.00
2013-4-9,88.5,75.5,70.2,69.3,67.0,65.0,88,76,48,29.66,29.53,18,4,18,0.00
2013-4-10,74.5,56.1,44.5,69.0,51.2,40.8,96,84,62,29.95,29.57,17,2,17,0.60
2013-4-11,74.3,55.6,41.7,45.2,40.4,36.4,92,61,27,29.98,29.78,10,1,10,0.02
2013-4-12,84.3,62.8,40.4,51.3,43.9,38.2,98,59,22,29.98,29.82,9,1,9,0.00
2013-4-13,78.6,64.9,48.3,58.8,51.7,45.7,94,64,40,29.93,29.74,10,1,10,0.00
2013-4-14,92.7,74.0,56.3,66.1,60.2,53.4,94,66,34,29.78,29.53,11,2,11,0.00
2013-4-15,92.5,78.3,70.2,67.6,65.9,63.4,88,68,39,29.74,29.62,12,3,12,0.00
2013-4-16,89.0,77.4,68.4,70.0,66.3,63.1,85,70,50,29.83,29.74,14,3,14,0.00
2013-4-17,84.5,76.7,73.0,72.0,69.8,67.4,94,80,58,29.82,29.61,15,3,15,0.00
2013-4-18,75.7,62.8,50.4,71.8,53.2,37.6,94,72,41,30.09,29.58,13,2,13,0.26
2013-4-19,73.9,55.2,39.1,38.3,32.4,21.7,90,50,15,30.30,30.09,13,1,13,0.00
2013-4-20,75.5,57.5,35.9,46.7,34.5,26.7,94,51,17,30.22,29.96,14,2,14,0.00
2013-4-21,81.4,65.8,50.9,56.2,51.2,46.4,86,62,37,30.12,29.96,11,2,11,0.00
2013-4-22,86.5,71.6,53.4,61.7,57.4,51.6,96,64,38,30.06,29.81,14,2,14,0.00
2013-4-23,80.5,65.4,49.8,66.4,56.5,41.0,86,73,49,30.11,29.79,10,2,10,0.00
2013-4-24,71.4,54.9,44.9,42.5,37.6,32.2,80,55,28,30.27,30.12,10,1,10,0.00
2013-4-25,70.3,61.8,55.0,48.4,43.7,40.5,61,52,37,30.31,30.14,8,1,8,0.00
2013-4-26,79.2,68.8,59.2,71.0,62.7,43.3,97,82,46,30.14,29.97,11,1,11,0.00
2013-4-27,91.8,75.9,68.9,70.9,66.6,62.1,94,75,40,30.04,29.87,8,1,8,0.07
2013-4-28,90.8,75.7,61.1,65.8,61.7,55.1,98,66,33,29.99,29.79,13,1,13,0.00
2013-4-29,85.0,72.9,65.8,72.5,64.7,60.5,95,77,48,29.88,29.72,14,1,14,0.31
2013-4-30,88.0,74.3,62.4,67.3,63.9,61.1,97,73,45,29.80,29.67,11,1,11,0.00
2013-5-1,92.3,77.9,67.5,67.7,65.9,64.3,93,69,43,29.90,29.73,10,2,10,0.00
2013-5-2,75.8,55.0,47.9,65.2,47.9,36.0,96,77,59,30.34,29.85,15,2,15,0.05
2013-5-3,73.8,55.5,39.4,36.7,31.6,23.7,81,47,16,30.34,30.06,12,1,12,0.00
2013-5-4,86.3,60.9,35.8,43.8,34.7,26.3,90,49,12,30.07,29.85,12,1,12,0.00
2013-5-5,82.3,63.4,45.1,47.2,42.7,36.8,76,50,27,30.13,29.97,7,0,7,0.00
2013-5-6,80.8,62.8,46.7,50.5,47.4,43.8,93,62,31,30.13,29.97,6,0,6,0.00
2013-5-7,90.4,69.0,45.5,55.7,49.2,43.6,96,57,22,30.06,29.88,11,1,11,0.00
2013-5-8,84.9,74.1,63.5,64.0,61.0,53.3,88,65,46,29.97,29.82,11,2,11,0.00
2013-5-9,79.8,71.6,65.0,69.5,65.9,62.0,94,83,69,29.94,29.81,10,1,10,0.07
2013-5-10,92.3,71.0,59.6,69.3,62.8,57.2,97,79,33,30.00,29.76,15,1,15,2.11
2013-5-11,85.8,58.6,59.5,64.8,27.9,-99.9,99,52,31,30.12,29.96,8,-186,8,0.00
2013-5-12,85.8,67.7,52.8,57.8,52.2,43.1,97,63,27,30.24,30.08,7,0,7,0.00
2013-5-13,91.3,69.4,47.5,56.8,50.7,43.5,97,60,20,30.24,30.10,9,1,9,0.00
2013-5-14,89.6,75.1,59.8,67.0,60.2,54.7,92,63,36,30.17,29.94,14,2,14,0.00
2013-5-15,88.3,75.4,65.6,72.9,68.5,63.4,97,81,54,30.04,29.75,15,3,15,0.62
2013-5-16,95.6,78.7,68.7,72.8,70.0,67.1,97,77,42,29.82,29.64,12,2,12,0.08
2013-5-17,96.5,69.4,74.8,73.5,44.8,-99.9,87,61,43,29.83,29.72,10,-150,10,0.00
2013-5-18,96.4,82.9,72.1,71.2,67.5,62.0,90,63,39,29.85,29.73,16,3,16,0.00
2013-5-19,93.4,81.9,72.6,72.5,68.8,65.1,85,66,47,29.78,29.64,14,3,14,0.04
2013-5-20,94.7,82.6,73.4,71.4,69.3,66.0,87,67,43,29.78,29.62,15,3,15,0.00
2013-5-21,77.8,75.5,74.4,71.5,70.6,70.1,87,85,79,29.77,29.69,10,2,10,0.00
2013-5-22,95.2,78.3,56.8,72.1,60.4,52.2,94,59,27,29.89,29.75,3,1,7,0.00
2013-5-23,90.1,81.3,74.5,72.8,71.2,69.9,90,73,54,29.98,29.81,11,2,13,0.00
2013-5-24,83.8,47.1,68.9,74.0,5.0,-99.9,92,51,68,30.08,29.95,14,-386,14,0.41
2013-5-25,83.2,31.3,74.2,72.1,-31.6,-99.9,89,31,65,30.08,29.97,13,-595,13,0.00
2013-5-26,74.3,73.5,71.9,71.2,70.7,70.0,97,91,87,30.04,29.99,6,1,6,0.09
2013-5-27,90.4,79.1,72.5,72.0,69.9,68.2,89,75,52,29.97,29.77,15,3,15,0.00
2013-5-28,90.7,80.5,73.7,71.3,69.3,67.3,85,70,50,29.85,29.70,14,4,14,0.00
2013-5-29,87.2,78.7,74.1,74.0,71.0,69.6,87,78,60,29.82,29.64,16,4,17,0.03
2013-5-30,91.0,81.6,75.7,74.2,71.5,70.2,85,72,53,29.78,29.68,15,3,15,0.00
2013-5-31,91.8,83.0,76.6,75.1,72.7,70.7,86,72,54,29.81,29.68,13,3,13,0.00
2013-6-1,98.9,85.3,76.6,74.6,72.4,70.8,85,67,43,29.84,29.72,15,2,15,0.00
2013-6-2,92.3,79.1,68.2,73.9,65.5,56.2,95,67,32,30.02,29.84,11,0,11,0.09
2013-6-3,96.3,78.0,61.1,68.1,62.5,54.9,98,65,26,29.95,29.77,7,1,7,0.00
2013-6-4,95.3,82.1,69.1,69.1,66.1,61.7,94,62,35,29.85,29.73,9,2,9,0.00
2013-6-5,96.0,82.9,70.1,69.7,67.2,62.1,92,62,34,29.84,29.68,13,2,13,0.00
2013-6-6,100.3,83.8,70.5,71.4,66.6,61.6,93,60,30,29.89,29.71,9,1,9,0.00
2013-6-7,89.2,77.6,66.2,65.9,60.0,50.0,90,59,27,29.96,29.82,5,0,5,0.00
2013-6-8,91.8,77.2,59.0,70.9,62.8,55.8,93,64,41,29.90,29.73,10,1,10,0.00
2013-6-9,92.3,80.5,67.7,73.9,71.0,65.2,96,75,49,29.93,29.78,10,1,10,0.31
2013-6-10,98.8,83.1,68.4,74.4,68.8,58.9,98,67,29,29.95,29.84,8,1,8,0.00
2013-6-11,96.3,83.7,73.8,72.8,70.4,61.7,94,67,40,29.97,29.88,14,1,14,0.00
2013-6-12,97.7,84.1,74.6,74.4,71.4,66.7,91,68,38,29.99,29.87,12,2,12,0.00
2013-6-13,99.3,83.4,73.2,74.8,71.0,65.1,94,69,39,30.01,29.88,13,1,13,0.00
2013-6-14,94.3,81.6,72.9,75.7,72.9,69.5,91,76,50,29.94,29.84,7,0,7,0.00
2013-6-15,91.3,82.4,76.2,76.0,73.4,71.0,92,76,54,29.94,29.84,5,0,5,0.00
2013-6-16,98.3,86.1,72.9,74.1,69.9,63.1,94,62,34,29.96,29.83,12,1,12,0.00
2013-6-17,100.5,86.9,76.2,73.7,69.9,62.6,86,61,34,29.95,29.78,12,2,12,0.00
2013-6-18,84.0,79.8,71.8,73.8,71.7,66.8,93,77,68,29.93,29.85,7,1,7,0.15
2013-6-19,98.3,86.2,73.6,73.3,70.4,66.8,95,63,38,29.91,29.82,4,1,16,0.00
2013-6-20,98.2,86.2,75.4,71.9,68.4,63.8,87,58,34,29.99,29.87,4,2,16,0.00
2013-6-21,97.8,86.6,76.4,72.9,68.0,58.5,86,58,29,30.01,29.89,13,3,13,0.00
2013-6-22,98.7,86.5,75.5,72.5,67.7,60.5,88,57,31,29.99,29.81,12,3,12,0.00
2013-6-23,95.3,85.4,76.4,73.0,66.7,56.7,86,57,31,29.92,29.82,13,3,14,0.00
2013-6-24,100.1,86.3,76.4,72.7,69.1,63.9,85,60,32,29.97,29.82,11,3,17,0.00
2013-6-25,100.3,87.6,77.9,72.7,68.2,61.1,83,57,29,29.94,29.78,14,3,14,0.00
2013-6-26,102.3,88.3,77.2,72.8,68.8,61.1,81,56,29,29.91,29.79,12,3,12,0.00
2013-6-27,105.3,88.5,76.2,72.3,65.4,52.6,83,52,20,29.97,29.82,12,2,12,0.00
2013-6-28,109.1,90.1,73.6,72.9,66.3,58.2,86,51,21,29.94,29.73,9,1,9,0.00
2013-6-29,111.2,91.8,71.8,71.5,63.5,54.1,84,45,17,29.81,29.67,9,0,9,0.00
2013-6-30,96.3,84.2,70.9,71.5,65.6,57.7,93,56,34,29.91,29.75,9,1,9,0.10
2013-7-1,94.2,81.2,67.6,68.3,54.9,46.8,72,43,23,29.97,29.85,11,0,11,0.00
2013-7-2,96.3,78.5,60.1,60.7,52.2,44.3,89,47,19,30.04,29.91,9,0,9,0.00
2013-7-3,99.0,80.6,61.1,57.7,49.3,40.9,73,38,15,29.99,29.84,10,1,10,0.00
2013-7-4,97.7,81.9,65.9,67.5,58.2,51.7,87,49,24,29.94,29.82,8,1,8,0.00
2013-7-5,101.3,86.0,66.0,69.4,60.4,51.6,87,48,20,29.94,29.76,11,1,11,0.00
2013-7-6,101.8,86.7,69.1,71.3,64.2,55.2,87,52,23,29.89,29.74,11,2,11,0.00
2013-7-7,102.4,86.6,76.1,74.5,70.0,62.9,87,62,29,29.92,29.79,14,2,15,0.00
2013-7-8,89.0,81.7,75.4,78.6,72.2,67.3,92,74,51,30.05,29.91,18,1,18,0.22
2013-7-9,99.8,86.3,72.5,73.5,69.8,64.2,96,63,33,30.10,29.93,11,2,11,0.00
2013-7-10,103.9,88.7,74.2,74.0,69.3,62.6,92,57,27,30.04,29.84,8,2,8,0.00
2013-7-11,103.7,88.0,76.9,73.7,64.5,-99.9,83,52,24,29.95,29.79,8,-16,8,0.00
2013-7-12,104.0,89.8,72.6,71.3,64.9,57.5,84,48,23,29.91,29.80,9,1,9,0.00
2013-7-13,107.0,90.6,72.5,70.7,63.3,55.5,84,46,20,29.92,29.76,8,1,8,0.00
2013-7-14,96.4,83.6,73.1,69.5,65.3,60.3,86,56,31,29.86,29.79,6,1,10,0.00
2013-7-15,75.5,71.8,69.0,74.0,70.1,66.9,97,94,86,29.99,29.84,4,0,8,2.01
2013-7-16,91.3,76.9,71.4,76.8,69.7,-99.9,98,84,52,30.09,29.97,7,-13,12,0.09
2013-7-17,89.5,76.0,71.2,76.1,72.2,69.7,98,89,59,30.14,30.05,18,0,18,1.44
2013-7-18,116.2,86.3,70.3,86.5,73.6,67.4,99,73,25,30.12,29.93,1,0,1,0.00
2013-7-19,98.1,81.1,65.8,74.1,66.4,-99.9,98,68,33,30.02,29.85,9,-10,9,0.01
2013-7-20,98.5,83.5,71.6,73.6,70.4,65.7,97,68,36,29.95,29.78,10,1,10,0.00
2013-7-21,97.2,83.5,72.3,75.5,72.7,70.0,96,72,43,29.90,29.80,11,1,11,0.00
2013-7-22,97.5,86.4,77.6,75.1,72.6,68.4,88,66,42,29.93,29.82,14,2,14,0.00
2013-7-23,99.5,87.3,77.8,74.7,70.3,62.5,84,61,33,29.94,29.80,12,2,12,0.00
2013-7-24,98.8,85.5,74.8,75.5,72.8,67.2,92,69,40,29.94,29.81,9,1,9,0.00
2013-7-25,101.7,86.9,74.4,74.3,70.5,63.3,92,62,32,29.96,29.88,6,1,6,0.00
2013-7-26,102.5,88.1,74.9,75.4,70.8,65.9,90,60,32,29.97,29.79,10,1,11,0.23
2013-7-27,92.9,80.1,71.3,76.2,72.6,68.1,97,80,48,29.93,29.83,7,0,7,0.01
2013-7-28,98.5,83.3,70.7,76.1,71.3,68.3,96,71,40,29.91,29.77,7,1,7,0.00
2013-7-29,99.7,87.5,78.1,74.9,69.8,61.2,86,60,31,29.95,29.86,15,3,15,0.00
2013-7-30,100.0,87.3,75.7,73.7,69.9,62.0,88,60,32,30.04,29.89,11,2,11,0.00
2013-7-31,104.8,87.8,73.9,72.7,67.4,59.0,92,57,24,30.03,29.86,9,1,9,0.00
2013-8-1,105.8,89.2,74.6,72.4,68.3,61.6,83,54,26,29.97,29.82,7,1,7,0.00
2013-8-2,102.7,88.2,76.0,69.3,63.6,-99.9,71,48,26,29.92,29.80,10,-13,10,0.00
2013-8-3,102.1,88.8,76.6,73.2,68.6,61.0,85,55,28,29.95,29.85,13,2,13,0.00
2013-8-4,101.0,88.3,75.2,75.8,71.1,65.7,92,60,35,30.01,29.85,10,2,11,0.00
2013-8-5,104.2,89.4,74.2,73.0,68.1,60.6,88,54,27,29.98,29.79,12,2,12,0.00
2013-8-6,104.5,89.7,75.3,74.1,69.2,59.9,86,55,25,29.89,29.73,12,2,15,0.00
2013-8-7,106.3,90.3,77.4,74.4,69.1,56.5,83,55,23,29.86,29.69,12,2,12,0.00
2013-8-8,105.5,89.9,76.2,73.8,67.3,56.2,86,53,22,29.84,29.70,12,2,12,0.00
2013-8-9,105.8,88.2,73.7,74.3,65.0,48.5,93,53,17,29.90,29.79,9,1,9,0.00
2013-8-10,107.8,89.6,74.0,73.3,68.2,61.4,87,54,25,29.99,29.85,11,1,11,0.00
2013-8-11,102.7,87.3,76.4,73.8,70.5,64.6,87,61,31,30.02,29.88,11,1,11,0.00
2013-8-12,101.3,86.8,74.9,72.7,68.9,63.4,88,59,31,30.01,29.86,9,1,9,0.00
2013-8-13,105.8,89.9,76.8,72.8,67.4,56.6,84,52,21,29.97,29.81,11,1,11,0.00
2013-8-14,106.7,42.1,77.1,73.3,-19.2,-99.9,88,27,25,29.96,29.82,6,-522,9,0.11
2013-8-15,97.2,27.8,72.2,76.1,-40.1,-99.9,98,28,43,29.97,29.85,9,-652,9,0.30
2013-8-16,97.0,79.9,71.7,76.3,70.0,60.5,99,76,34,30.01,29.87,10,0,10,0.00
2013-8-17,99.4,81.4,68.0,69.1,64.2,57.1,96,61,28,30.01,29.87,9,0,9,0.00
2013-8-18,100.9,81.4,64.3,67.9,61.0,53.0,94,57,22,30.01,29.91,7,0,7,0.00
2013-8-19,100.5,82.1,66.3,67.5,62.0,59.0,85,55,27,30.00,29.86,8,1,8,0.00
2013-8-20,100.0,83.7,66.6,69.4,64.0,55.9,91,56,25,29.98,29.86,8,1,9,0.00
2013-8-21,100.4,84.7,72.0,73.8,69.1,64.0,90,63,35,30.03,29.89,10,1,10,0.00
2013-8-22,99.3,85.7,72.1,74.3,69.4,64.9,91,62,34,30.04,29.85,9,1,9,0.00
2013-8-23,103.3,87.3,73.3,74.3,68.2,62.0,91,58,29,29.97,29.82,8,1,8,0.00
2013-8-24,103.7,88.6,76.3,72.5,67.9,63.2,80,54,28,29.99,29.86,4,1,8,15.79
2013-8-25,99.6,86.4,72.6,72.5,69.3,65.2,90,60,36,30.02,29.94,9,1,11,0.00
2013-8-26,96.3,82.5,75.1,72.1,70.4,66.4,86,69,40,30.07,29.96,12,2,12,0.00
2013-8-27,88.0,79.6,73.7,74.9,70.0,60.9,94,75,44,30.07,29.97,8,1,8,0.00
2013-8-28,100.1,83.7,68.8,74.0,68.2,64.0,96,65,32,30.06,29.93,11,1,11,0.00
2013-8-29,105.2,86.7,70.1,71.2,65.4,58.8,92,55,23,30.04,29.88,8,1,8,0.00
2013-8-30,107.5,87.6,71.6,69.5,64.2,59.3,83,50,22,29.97,29.80,7,0,7,0.00
2013-8-31,106.3,89.6,72.6,70.2,66.5,60.0,84,51,23,29.88,29.73,8,1,8,0.00
2013-9-1,104.6,89.4,75.9,72.8,67.5,62.5,80,52,28,29.85,29.73,10,1,10,0.00
2013-9-2,104.3,87.6,74.8,75.0,69.4,63.9,86,58,29,29.91,29.76,8,1,8,0.00
2013-9-3,104.5,84.5,71.4,78.1,70.5,61.9,94,68,26,29.94,29.81,9,0,9,0.03
2013-9-4,105.0,85.9,75.6,74.5,70.1,64.1,93,64,28,29.98,29.85,9,1,9,0.01
2013-9-5,102.0,85.8,70.9,72.2,67.8,63.0,88,59,29,30.05,29.92,12,1,12,0.00
2013-9-6,102.0,86.1,71.1,73.4,68.8,62.4,92,61,31,30.03,29.87,8,1,8,0.00
2013-9-7,102.2,83.4,71.6,75.1,69.7,63.2,92,68,29,29.98,29.83,15,1,15,0.00
2013-9-8,97.5,82.0,70.8,74.1,70.3,66.4,96,71,38,29.94,29.81,10,1,10,0.00
2013-9-9,98.4,80.2,71.4,75.8,70.2,65.8,91,74,36,29.94,29.85,16,1,16,0.07
2013-9-10,98.1,80.7,72.2,73.9,70.7,66.7,96,74,37,30.01,29.91,12,1,12,0.01
2013-9-11,98.3,71.4,73.8,74.3,39.6,-99.9,93,49,30,30.05,29.92,9,-168,9,0.00
2013-9-12,99.3,78.4,69.8,73.0,55.4,-99.9,92,56,30,30.02,29.85,9,-65,9,0.00
2013-9-13,101.2,83.8,68.6,71.1,62.0,-99.9,89,54,26,29.91,29.75,9,-10,9,0.00
2013-9-14,100.5,85.2,69.4,71.6,64.8,56.2,84,54,28,29.88,29.77,12,1,12,21.57
2013-9-15,97.5,65.8,72.1,73.2,28.9,-99.9,90,45,36,29.96,29.86,9,-235,9,0.82
2013-9-16,98.0,81.6,72.2,74.3,69.1,-99.9,95,70,40,30.01,29.89,9,-10,9,0.04
2013-9-17,96.7,52.8,75.6,76.8,3.5,-99.9,95,36,40,30.01,29.86,11,-392,11,0.00
2013-9-18,98.1,83.5,71.3,74.6,69.3,62.6,94,66,33,29.97,29.81,10,1,10,0.00
2013-9-19,96.1,34.3,75.8,78.5,-27.3,-99.9,97,33,46,29.90,29.74,18,-582,18,0.57
2013-9-20,76.6,73.8,70.0,75.6,72.9,69.1,98,97,94,29.84,29.74,10,0,10,5.00
2013-9-21,87.8,72.9,58.7,69.0,61.1,49.6,97,72,30,29.90,29.80,10,1,10,0.00
2013-9-22,89.2,69.4,54.2,60.5,53.8,45.1,98,65,23,29.88,29.74,6,0,6,0.00
2013-9-23,93.8,71.2,54.3,61.5,55.3,45.5,98,66,22,29.82,29.70,5,0,5,0.00
2013-9-24,99.0,76.2,58.6,64.3,60.3,56.7,97,65,26,29.89,29.78,5,0,5,0.00
2013-9-25,98.5,78.7,62.4,67.7,62.8,58.6,96,64,29,29.86,29.71,5,0,5,1.05
2013-9-26,94.5,79.5,61.9,72.6,61.7,54.3,89,58,29,29.85,29.75,12,1,12,0.00
2013-9-27,92.2,81.0,74.6,76.0,73.8,71.2,92,80,57,29.86,29.75,10,2,10,0.00
2013-9-28,90.8,80.7,72.3,78.9,74.7,70.5,94,83,56,29.94,29.81,10,1,10,0.29
2013-9-29,78.9,68.8,63.8,70.9,65.7,62.7,97,90,65,30.03,29.89,6,0,6,0.12
2013-9-30,92.7,71.9,58.5,66.9,59.7,49.6,98,72,26,29.92,29.76,6,0,6,0.01
2013-10-1,92.2,75.6,60.9,74.1,66.8,59.2,98,77,44,29.88,29.78,8,1,8,0.00
2013-10-2,94.3,81.4,74.6,76.2,72.1,68.3,92,75,46,29.91,29.78,8,2,8,1.64
2013-10-3,92.7,82.0,72.3,74.1,71.1,67.2,97,72,45,29.88,29.76,9,2,9,7.50
2013-10-4,92.4,81.0,72.3,72.1,70.2,67.9,93,72,47,29.86,29.77,12,2,12,3.32
2013-10-5,91.4,75.4,62.1,72.0,62.7,41.3,96,67,45,30.04,29.82,10,1,10,0.00
2013-10-6,83.3,64.2,51.8,57.7,48.2,34.5,97,64,18,30.11,30.01,8,0,9,0.35
2013-10-7,52.5,48.0,45.4,49.7,46.4,44.2,97,94,89,30.13,30.08,0,0,0,0.00
2013-10-8,87.5,83.7,79.7,51.6,49.5,47.2,36,31,27,29.94,29.93,6,1,6,2.23
2013-10-9,85.7,46.5,51.3,62.1,10.1,-99.9,97,52,40,30.02,29.91,6,-281,8,0.75
2013-10-10,87.7,54.6,63.5,67.9,16.0,-99.9,95,47,46,29.99,29.82,25,-295,25,1.32
2013-10-11,90.6,78.9,71.5,75.1,70.8,66.3,87,77,54,29.90,29.77,7,2,8,6.13
2013-10-12,78.4,77.6,76.1,73.9,73.5,73.1,92,87,84,29.86,29.84,5,1,5,10.80
2013-10-13,75.6,70.7,66.6,72.7,68.8,65.2,97,94,85,30.12,29.96,2,0,6,11.07
2013-10-14,80.7,74.6,71.2,75.9,71.8,70.3,97,91,80,30.06,29.87,5,1,8,0.10
2013-10-15,85.5,73.6,57.7,73.3,68.5,54.8,94,85,63,29.99,29.82,11,1,11,0.02
2013-10-16,62.2,57.4,53.1,59.2,55.7,52.2,97,94,87,30.06,29.93,5,0,5,0.90
2013-10-17,77.8,60.5,47.9,56.7,51.0,47.0,97,75,36,30.12,29.95,5,0,5,0.01
2013-10-18,72.4,63.3,52.6,64.3,58.7,51.5,97,86,71,29.99,29.85,4,0,4,0.01
2013-10-19,71.2,56.5,45.6,62.7,45.4,37.8,95,71,33,30.19,29.99,8,1,8,0.03
2013-10-20,76.7,56.9,40.1,53.2,46.7,39.3,98,74,37,30.08,29.89,7,1,7,0.00
2013-10-21,84.5,68.6,55.4,68.9,60.8,50.5,93,77,57,30.05,29.86,8,0,8,0.00
2013-10-22,80.0,62.1,48.1,55.4,46.6,38.5,90,63,24,30.15,30.05,8,0,8,0.00
2013-10-23,85.5,60.7,43.9,53.7,46.4,40.5,98,68,22,30.16,30.05,6,0,6,2.88
2013-10-24,82.1,53.9,44.5,55.7,47.8,43.3,97,83,34,30.21,30.10,3,0,3,4.65
2013-10-25,81.2,64.7,47.9,62.7,55.8,46.8,97,75,50,30.30,30.16,8,1,8,0.00
2013-10-26,80.3,70.4,63.8,66.6,62.5,59.8,90,77,57,30.19,30.01,10,1,10,0.00
2013-10-27,77.3,67.4,61.5,65.6,63.1,60.3,97,87,63,30.09,29.97,6,0,6,0.13
2013-10-28,82.8,72.5,64.7,69.7,66.4,62.6,95,82,60,30.04,29.92,11,2,11,0.00
2013-10-29,84.3,76.0,70.7,71.3,68.6,66.6,88,78,60,30.02,29.91,11,3,11,0.00
2013-10-30,82.1,69.4,70.9,75.2,59.0,-99.9,97,79,1,29.98,29.75,10,-75,10,1.81
2013-10-31,81.7,69.2,49.8,70.7,56.9,35.0,98,73,21,29.86,29.68,13,1,13,0.20
2013-11-1,84.3,61.9,44.4,60.1,45.8,37.0,98,64,19,30.07,29.80,12,0,12,0.00
2013-11-2,77.5,59.2,45.7,46.6,38.7,-99.9,87,54,22,30.27,30.07,8,-17,8,5.66
2013-11-3,72.2,42.4,39.8,49.6,2.4,-99.9,98,43,32,30.21,30.01,8,-283,8,4.05
2013-11-4,65.2,62.7,59.1,61.6,58.9,53.8,93,88,78,30.03,29.95,3,1,8,0.00
2013-11-5,72.1,65.9,64.7,67.5,62.9,60.7,96,90,85,29.98,29.94,7,1,8,1.82
2013-11-6,64.7,60.3,46.5,60.7,55.7,43.0,91,85,64,30.32,29.95,9,1,9,1.42
2013-11-7,64.7,51.3,39.6,49.4,42.0,35.7,95,74,37,30.47,30.32,9,0,9,0.00
2013-11-8,64.8,55.5,47.6,50.6,45.1,37.5,93,71,37,30.38,30.14,9,0,9,0.00
2013-11-9,67.7,61.6,55.8,58.8,53.5,45.2,83,75,64,30.17,30.08,7,1,7,0.00
2013-11-10,71.5,64.1,59.8,59.3,57.2,52.8,90,79,62,30.28,30.15,7,0,7,0.00
2013-11-11,75.2,60.5,48.2,58.3,53.1,46.9,97,79,51,30.26,30.12,5,0,5,2.65
2013-11-12,58.1,51.0,40.1,55.2,44.2,25.7,97,79,52,30.63,30.23,13,1,13,0.32
2013-11-13,54.7,45.2,30.1,34.6,29.5,15.2,90,55,41,30.67,30.39,6,0,6,0.04
2013-11-14,62.7,47.5,29.5,48.4,36.5,27.8,96,69,34,30.39,30.03,13,1,13,0.00
2013-11-15,78.7,62.7,47.4,59.9,54.3,46.0,96,76,50,30.03,29.82,9,1,9,0.00
2013-11-16,80.5,72.1,62.6,70.0,65.4,59.2,91,80,63,29.87,29.69,14,2,14,0.00
2013-11-17,88.2,73.7,57.2,72.0,64.3,54.3,97,76,38,29.92,29.72,7,0,7,0.00
2013-11-18,74.2,64.1,54.0,59.6,54.0,48.7,96,71,54,30.08,29.91,5,0,5,0.00
2013-11-19,72.5,62.6,51.4,52.8,47.8,43.2,82,60,38,30.13,29.96,10,1,10,0.00
2013-11-20,72.8,64.3,58.8,65.0,56.9,47.6,96,77,65,29.99,29.85,12,2,13,0.00
2013-11-21,78.1,72.1,66.2,72.1,69.1,65.0,98,91,77,30.01,29.89,9,0,9,0.20
2013-11-22,68.6,40.8,34.5,67.9,39.5,33.3,98,95,87,30.42,30.00,12,1,12,0.57
2013-11-23,41.2,37.9,35.1,39.2,36.4,33.9,97,94,89,30.50,30.39,8,1,8,0.06
2013-11-24,41.6,37.6,33.5,38.5,34.0,30.8,96,87,74,30.52,30.33,9,0,9,0.20
2013-11-25,40.1,37.1,33.6,38.7,35.7,32.6,97,95,88,30.35,30.10,8,0,8,0.54
2013-11-26,52.4,42.3,37.5,39.4,34.7,29.9,90,75,52,30.37,30.14,12,1,12,0.00
2013-11-27,51.0,39.0,29.2,31.3,27.6,21.5,93,66,33,30.50,30.35,7,0,7,0.00
2013-11-28,56.5,39.1,28.7,35.3,30.6,27.2,97,76,36,30.46,30.34,6,0,6,0.00
2013-11-29,62.7,46.9,28.9,50.9,41.6,27.6,98,83,59,30.52,30.34,7,0,7,0.00
2013-11-30,65.2,55.6,49.6,56.6,50.1,45.8,98,82,71,30.35,30.16,6,0,6,0.00
2013-12-1,73.0,61.5,50.8,61.4,56.7,50.0,99,85,63,30.18,29.91,10,1,10,0.00
2013-12-2,82.4,60.0,45.7,59.7,48.1,-99.9,98,73,27,29.91,29.62,7,-10,8,0.00
2013-12-3,83.9,57.1,38.8,56.0,46.6,37.9,98,74,26,29.69,29.56,3,0,4,0.00
2013-12-4,74.9,59.4,46.1,65.8,55.8,44.8,97,89,72,29.76,29.64,8,1,8,0.00
2013-12-5,62.4,42.4,31.3,62.1,36.5,25.4,99,80,64,30.12,29.75,12,1,13,0.00
2013-12-6,34.9,31.8,27.4,31.7,28.0,21.4,96,86,77,30.48,30.06,12,1,12,0.05
2013-12-7,30.6,27.2,24.7,24.3,21.8,18.9,88,80,73,30.51,30.31,8,0,8,0.00
2013-12-8,48.3,34.9,26.7,40.0,31.3,23.4,96,87,73,30.31,30.03,6,0,6,0.00
2013-12-9,39.1,35.7,30.5,38.3,34.7,29.5,98,96,89,30.42,30.06,8,0,8,0.04
2013-12-10,48.0,34.1,25.1,30.1,25.7,21.5,93,74,39,30.54,30.35,6,0,6,0.00
2013-12-11,58.2,40.1,25.7,36.9,30.3,24.2,96,72,37,30.57,30.34,7,0,7,0.00
2013-12-12,54.6,41.1,29.0,37.8,32.9,26.6,92,74,49,30.60,30.28,7,0,7,0.00
2013-12-13,48.2,45.1,42.7,47.8,41.7,35.2,99,88,71,30.31,29.89,5,0,5,0.18
2013-12-14,50.3,42.7,32.8,48.3,39.6,30.7,99,89,67,30.35,29.86,11,0,11,0.01
2013-12-15,60.3,40.6,27.9,40.6,32.8,26.7,96,77,38,30.42,30.26,5,0,5,0.00
2013-12-16,68.1,44.0,27.3,41.5,34.1,26.2,97,74,33,30.31,30.17,8,0,8,0.00
2013-12-17,71.0,45.8,29.9,45.3,36.8,28.8,97,76,31,30.33,30.21,4,0,4,0.00
2013-12-18,70.2,50.6,31.6,54.9,43.7,30.5,98,79,53,30.28,30.04,10,1,10,0.00
2013-12-19,74.5,64.7,52.5,62.8,58.6,49.2,91,81,62,30.04,29.75,19,2,19,0.00
2013-12-20,74.6,68.7,65.5,67.7,64.5,62.3,95,87,75,29.81,29.59,13,1,13,0.00
2013-12-21,71.7,49.7,40.0,67.3,46.7,38.8,98,90,50,29.81,29.55,10,0,10,0.32
2013-12-22,53.1,41.5,32.3,42.5,36.4,29.5,98,84,54,30.39,29.82,10,0,10,0.00
2013-12-23,55.7,37.9,26.9,36.5,30.0,25.4,96,77,34,30.54,30.39,5,0,5,0.00
2013-12-24,59.7,40.8,26.8,38.8,31.2,25.8,98,73,33,30.54,30.27,10,1,10,0.00
2013-12-25,59.6,47.6,35.3,50.0,42.0,34.3,97,82,68,30.41,30.24,6,0,6,0.00
2013-12-26,54.7,44.2,35.4,44.1,38.3,33.0,95,81,60,30.45,30.32,5,0,5,0.00
2013-12-27,58.2,47.5,39.5,44.9,41.8,38.2,97,82,53,30.44,30.32,4,0,4,0.00
2013-12-28,63.1,48.3,35.9,47.2,42.0,35.0,97,81,53,30.32,30.00,8,0,8,0.00
2013-12-29,60.5,46.0,32.8,51.5,42.2,30.2,97,87,71,30.30,29.95,13,0,13,0.00
2013-12-30,44.6,36.8,32.1,33.3,28.9,24.6,90,74,53,30.41,30.25,7,0,7,0.00
2013-12-31,55.2,40.9,31.9,36.0,32.4,28.9,95,74,43,30.48,30.24,7,0,7,0.00
2014-1-1,68.4,48.7,30.8,55.5,42.8,29.2,96,82,57,30.24,29.97,14,1,14,0.00
2014-1-2,51.9,40.1,27.4,46.5,28.7,24.8,96,65,38,30.46,30.12,13,1,13,0.00